Simultaneous Nadir Overpasses (SNOs) Predictions

Prediction of SNOs between METOP-B and TERRA Satellite Orbit:

Table of predicted SNOs for the next 14.0 days since TLE Epoch: 11/6/2021
Index Date (METOP-B) Time (METOP-B) Lat,Lon (METOP-B) SZA (METOP-B ) Date (TERRA) Time (TERRA) Lat,Lon (TERRA) SZA (TERRA ) Distance(km) Time Diff (sec)
1 11/07/2021 00:42:57 -81.25, 33.28 79.69 11/07/2021 00:43:25 -81.25, 33.40 79.66 1.97 28
2 11/07/2021 01:33:36 81.26,-158.84 100.39 11/07/2021 01:32:51 81.25,-158.87 100.37 0.68 45
3 11/09/2021 20:17:19 -81.25, 99.86 78.87 11/09/2021 20:17:37 -81.25, 99.90 78.85 0.80 18
4 11/09/2021 21:07:58 81.26, -92.27 101.21 11/09/2021 21:07:03 81.26, -92.38 101.17 1.94 55
5 11/12/2021 15:51:41 -81.25, 166.39 78.09 11/12/2021 15:51:49 -81.25, 166.33 78.10 1.12 8
6 11/12/2021 16:42:21 81.26, -26.13 101.94 11/12/2021 16:41:15 81.26, -25.98 101.92 2.53 66
7 11/15/2021 10:35:22 81.25, 65.10 102.57 11/15/2021 10:36:33 81.25, 65.07 102.60 0.56 71
8 11/15/2021 11:26:03 -81.25,-127.49 77.42 11/15/2021 11:26:00 -81.25,-127.32 77.40 2.86 3
9 11/18/2021 06:09:45 81.24, 131.17 103.20 11/18/2021 06:10:45 81.24, 131.31 103.24 2.44 60



Historial Predications of SNOs between METOP-B and TERRA
